[[{"header":{"parameterUnit":"m.s-1","parameterCategory":1,"la1":30.2991,"la2":30.254,"lo1":-89.0895,"lo2":-89.0444,"dx":0.0017,"dy":0.0017,"nx":28,"ny":28,"refTime":"2022-11-29T09:00:00:Z","depth":0,"parameterNumber":2,"parameterNumberName":"U-component_of_WINDS"},"data":[0,0,0,0,0,0,0,0,0,0,0,0,0,0,0,0,0,0,0,0,0,0,0,0,0,0,0,0,0,0,0,0,0,0,0,0,0,0,0,0,0,0,0,0,0,0,0,0,0,0,0,0,0,0,0,0,0,0,-4.3236,-4.3237,0,-4.3368,-4.3369,-4.3371,-4.3401,-4.34,-4.3399,-4.3398,-4.353,-4.3534,-4.3539,0,0,0,0,0,0,0,0,0,0,0,0,0,-4.3007,-4.3011,-4.3236,-4.3237,-4.3239,-4.3368,-4.337,-4.3371,-4.3401,-4.34,-4.3399,-4.3398,-4.3529,-4.3534,-4.3539,0,0,0,0,0,0,0,0,0,0,0,0,0,-4.3119,-4.3012,-4.3235,-4.3269,-4.3274,-4.3367,-4.337,-4.3372,-4.3401,-4.34,-4.3398,-4.3397,-4.3527,-4.3533,-4.354,-4.3608,0,0,-4.356,-4.3563,0,0,0,0,0,0,0,0,-4.3113,-4.3127,-4.3263,-4.3267,-4.3272,-4.3367,-4.3337,-4.3451,-4.3401,-4.3353,-4.3398,-4.3396,-4.3477,-4.3487,-4.3515,-4.3614,-4.362,-4.3561,-4.3565,-4.3567,-4.3569,0,0,0,0,0,0,0,-4.3105,-4.3122,-4.3288,-4.3265,-4.327,-4.3277,-4.3292,-4.3359,-4.3421,-4.3357,-4.3359,-4.3375,-4.3479,-4.3509,-4.3518,-4.3622,-4.356,-4.3566,-4.357,-4.3573,-4.3784,-4.3786,0,0,0,0,0,0,-4.3092,-4.3115,-4.3284,-4.3292,-4.3188,-4.3283,-4.3299,-4.3338,-4.342,-4.3431,-4.3376,-4.3376,-4.3498,-4.3511,-4.3523,-4.3608,-4.3567,-4.3573,-4.3577,-4.3783,-4.3785,-4.3786,0,0,0,0,0,0,-4.3086,-4.3106,-4.3278,-4.3204,-4.3227,-4.3288,-4.3331,-4.3341,-4.3371,-4.3434,-4.3445,-4.3395,-4.3497,-4.3514,-4.3587,-4.3613,-4.3576,-4.3582,-4.3781,-4.3783,-4.3786,-4.3778,0,0,0,0,0,0,-4.308,-4.3104,-4.3131,-4.3205,-4.3231,-4.334,-4.3333,-4.3344,-4.3382,-4.3383,-4.3455,-4.3466,-4.3498,-4.3577,-4.3594,-4.3621,-4.3588,-4.3779,-4.3782,-4.3785,-4.3776,-4.378,-4.3783,0,0,0,0,0,-4.3072,-4.3123,-4.3132,-4.3152,-4.3266,-4.3342,-4.3357,-4.3393,-4.3384,-4.3411,-4.3453,-4.3463,-4.3608,-4.3584,-4.3603,-4.3633,-4.3777,-4.3781,-4.3785,-4.3775,-4.3779,-4.3783,0,0,0,0,0,0,-4.3049,-4.3133,-4.3144,-4.3221,-4.3275,-4.3347,-4.3382,-4.3397,-4.3453,-4.3451,-4.3494,-4.351,-4.358,-4.3614,-4.3586,-4.3704,-4.3692,-4.37,-4.3678,-4.3683,-4.3687,-4.3676,-4.3593,0,0,0,0,0,-4.3053,-4.3109,-4.318,-4.3241,-4.3267,-4.332,-4.3355,-4.3379,-4.3435,-4.3457,-4.3503,-4.3557,-4.3614,-4.3651,-4.3708,-4.3783,-4.3798,-4.3813,-4.3816,-4.3819,-4.3824,-4.3866,-4.3873,-4.3799,-4.3799,-4.3799,0,0,-4.3062,-4.3115,-4.3147,-4.3238,-4.3281,-4.3337,-4.3338,-4.3398,-4.3439,-4.3466,-4.3537,-4.3574,-4.3636,-4.3711,-4.3746,-4.3741,-4.3849,-4.3824,-4.3825,-4.3829,-4.387,-4.3877,-4.3883,-4.3801,-4.3801,-4.3801,0,0,-4.3106,-4.3153,-4.3208,-4.3253,-4.332,-4.3356,-4.3369,-4.344,-4.3465,-4.3539,-4.356,-4.361,-4.3708,-4.3752,-4.3787,-4.385,-4.3862,-4.3868,-4.3885,-4.3925,-4.3931,-4.3936,-4.3958,-4.3965,-4.3873,-4.3873,-4.3873,0,-4.3108,-4.3194,-4.3235,-4.3294,-4.3332,-4.3361,-4.3417,-4.3458,-4.354,-4.3566,-4.3561,-4.3685,-4.3729,-4.3814,-4.383,-4.3858,-4.3874,-4.3858,-4.3927,-4.3933,-4.3938,-4.3959,-4.3967,-4.3874,-4.3874,-4.3874,-4.3874,0,-4.3192,-4.3252,-4.3289,-4.3369,-4.3412,-4.3469,-4.3518,-4.3557,-4.3578,-4.3614,-4.3688,-4.3743,-4.3811,-4.3833,-4.3854,-4.3921,-4.3916,-4.3919,-4.3907,-4.3945,-4.3965,-4.3973,-4.3874,-4.3874,-4.3874,-4.3874,0,0,-4.3223,-4.3326,-4.3339,-4.3376,-4.3453,-4.3499,-4.3558,-4.3626,-4.3658,-4.3714,-4.3764,-4.3848,-4.3851,-4.3891,-4.3917,-4.3953,-4.3998,-4.3951,-4.3953,-4.3956,-4.4075,-4.4071,-4.4079,-4.4008,-4.4009,-4.4011,-4.4069,0,-4.3275,-4.3381,-4.3421,-4.3508,-4.3563,-4.3592,-4.3643,-4.3696,-4.3732,-4.3783,-4.3823,-4.3881,-4.3881,-4.3906,-4.3943,-4.3984,-4.4022,-4.3981,-4.4052,-4.4055,-4.4033,-4.409,-4.4086,-4.4138,-4.4077,-4.4078,-4.408,0,-4.3349,-4.3408,-4.35,-4.3572,-4.3596,-4.3641,-4.3707,-4.3757,-4.3817,-4.3841,-4.3886,-4.3911,-4.3973,-4.396,-4.4046,-4.4017,-4.405,-4.4075,-4.4078,-4.4084,-4.4067,-4.4095,-4.4155,-4.4162,-4.4093,-4.4092,-4.4091,0,-4.336,-4.3462,-4.3531,-4.3561,-4.3647,-4.3678,-4.3715,-4.3774,-4.3813,-4.3871,-4.3896,-4.396,-4.3994,-4.4043,-4.4084,-4.4071,-4.4165,-4.4156,-4.4185,-4.4184,-4.4202,-4.4199,-4.4265,-4.4226,-4.4226,-4.4226,-4.4226,0,-4.3413,-4.3468,-4.3537,-4.3579,-4.3641,-4.3687,-4.3747,-4.3786,-4.3839,-4.3889,-4.3919,-4.3964,-4.4016,-4.4069,-4.4101,-4.4167,-4.4183,-4.4203,-4.421,-4.4199,-4.4196,-4.4218,-4.4215,-4.4228,-4.4227,-4.4227,-4.4227,0,-4.3434,-4.3483,-4.3559,-4.3635,-4.3655,-4.3698,-4.3762,-4.3804,-4.3842,-4.3904,-4.3922,-4.3981,-4.4044,-4.4091,-4.4173,-4.4195,-4.4264,-4.4273,-4.4244,-4.4247,-4.4273,-4.4269,-4.4354,-4.4367,-4.432,-4.4321,-4.4321,0,-4.3463,-4.3506,-4.3587,-4.3623,-4.366,-4.3718,-4.3758,-4.3805,-4.3845,-4.3918,-4.3951,-4.4017,-4.4072,-4.4172,-4.4222,-4.4285,-4.4294,-4.4319,-4.4303,-4.429,-4.4292,-4.4288,-4.4292,-4.432,-4.4321,-4.4321,-4.4321,0,-4.3509,-4.3532,-4.3589,-4.3655,-4.3702,-4.3756,-4.381,-4.3838,-4.3895,-4.3938,-4.4004,-4.4047,-4.4132,-4.4196,-4.4264,-4.4302,-4.432,-4.4326,-4.4336,-4.4323,-4.4304,-4.4313,-4.4248,-4.4323,-4.4323,-4.4323,-4.4323,-4.4323,-4.3534,-4.3574,-4.3637,-4.37,-4.3747,-4.3797,-4.384,-4.3884,-4.394,-4.4013,-4.4038,-4.4106,-4.4166,-4.426,-4.4299,-4.4352,-4.4351,-4.4366,-4.4369,-4.4371,-4.437,-4.4298,-4.4365,-4.4365,-4.4365,-4.4365,-4.4365,0,-4.358,-4.3623,-4.3681,-4.3756,-4.3806,-4.3822,-4.3883,-4.3923,-4.3983,-4.4038,-4.4092,-4.4168,-4.4232,-4.4288,-4.4353,-4.4385,-4.4396,-4.4401,-4.4398,-4.4406,-4.4368,-4.4352,-4.4392,-4.4392,-4.4392,-4.4392,-4.4391,-4.4391,-4.361,-4.3678,-4.3708,-4.38,-4.3842,-4.391,-4.3943,-4.399,-4.4035,-4.4118,-4.4172,-4.4208,-4.4264,-4.4335,-4.4393,-4.4408,-4.443,-4.4433,-4.445,-4.4412,-4.4409,-4.4405,-4.4391,-4.4438,-4.4438,-4.4484,-4.4484,-4.4484]},{"header":{"parameterUnit":"m.s-1","parameterCategory":1,"la1":30.2991,"la2":30.254,"lo1":-89.0895,"lo2":-89.0444,"dx":0.0017,"dy":0.0017,"nx":28,"ny":28,"refTime":"2022-11-29T09:00:00:Z","depth":0,"parameterNumber":3,"parameterNumberName":"V-component_of_WINDS"},"data":[0,0,0,0,0,0,0,0,0,0,0,0,0,0,0,0,0,0,0,0,0,0,0,0,0,0,0,0,0,0,0,0,0,0,0,0,0,0,0,0,0,0,0,0,0,0,0,0,0,0,0,0,0,0,0,0,0,0,3.9821,3.9823,0,3.9934,3.9935,3.9937,3.9969,3.9968,3.9967,3.9967,4.0075,4.0078,4.0082,0,0,0,0,0,0,0,0,0,0,0,0,0,3.9629,3.9632,3.9821,3.9823,3.9824,3.9934,3.9936,3.9937,3.9969,3.9968,3.9967,3.9966,4.0074,4.0078,4.0082,0,0,0,0,0,0,0,0,0,0,0,0,0,3.9724,3.9633,3.9821,3.9853,3.9857,3.9934,3.9936,3.9937,3.9969,3.9968,3.9967,3.9966,4.0073,4.0078,4.0083,4.0133,0,0,4.0098,4.0101,0,0,0,0,0,0,0,0,3.9719,3.9731,3.9847,3.9851,3.9856,3.9937,3.9908,4.0003,3.9969,3.9926,3.9967,3.9966,4.0029,4.0038,4.0061,4.0138,4.0143,4.0099,4.0102,4.0104,4.0106,0,0,0,0,0,0,0,3.9712,3.9726,3.9866,3.9849,3.9854,3.9861,3.9873,3.9926,3.9981,3.993,3.9933,3.9946,4.0031,4.0056,4.0064,4.0144,4.0099,4.0103,4.0107,4.0109,4.0272,4.0273,0,0,0,0,0,0,3.9701,3.9721,3.9862,3.9869,3.9784,3.9865,3.9879,3.9911,3.9981,3.9991,3.9946,3.9947,4.0047,4.0057,4.0067,4.0134,4.0104,4.0109,4.0112,4.0271,4.0272,4.0273,0,0,0,0,0,0,3.9696,3.9713,3.9858,3.9796,3.9815,3.9869,3.9905,3.9914,3.9939,3.9993,4.0003,3.9962,4.0047,4.006,4.0118,4.0138,4.0111,4.0116,4.0269,4.0271,4.0273,4.0264,0,0,0,0,0,0,3.9691,3.9711,3.9732,3.9796,3.9818,3.9907,3.9907,3.9917,3.9948,3.995,4.001,4.0019,4.0047,4.011,4.0123,4.0144,4.012,4.0268,4.027,4.0272,4.0263,4.0266,4.0268,0,0,0,0,0,3.9684,3.9722,3.9732,3.9749,3.9845,3.9908,3.9921,3.9954,3.995,3.9971,4.0006,4.0017,4.0133,4.0115,4.013,4.0154,4.0266,4.0269,4.0272,4.0262,4.0265,4.0268,0,0,0,0,0,0,3.9655,3.9731,3.9743,3.9804,3.985,3.9914,3.994,3.9956,4.0002,4.0001,4.0039,4.0053,4.0108,4.0136,4.0115,4.0208,4.02,4.0206,4.0187,4.0191,4.0193,4.0185,4.0124,0,0,0,0,0,3.9656,3.9703,3.9766,3.9814,3.9837,3.9885,3.9913,3.9936,3.9984,4.0003,4.0042,4.0087,4.0134,4.0164,4.0209,4.0267,4.0282,4.0291,4.0293,4.0295,4.03,4.0335,4.0341,4.0282,4.0282,4.0282,0,0,3.9658,3.9706,3.9732,3.981,3.9848,3.9895,3.9901,3.9949,3.9984,4.0009,4.0068,4.0099,4.0151,4.021,4.0237,4.0235,4.0319,4.0298,4.0299,4.0303,4.0339,4.0344,4.0349,4.0284,4.0284,4.0284,0,0,3.9687,3.9727,3.9773,3.9812,3.9871,3.9904,3.9915,3.9977,4.0,4.006,4.0081,4.0122,4.0201,4.0239,4.0268,4.0315,4.0328,4.0329,4.0341,4.0376,4.038,4.0385,4.0404,4.041,4.0333,4.0333,4.0333,0,3.9681,3.9755,3.9793,3.9843,3.9877,3.9906,3.9953,3.9988,4.0058,4.008,4.0077,4.018,4.0217,4.0286,4.0299,4.0321,4.0335,4.0322,4.0377,4.0382,4.0386,4.0405,4.0411,4.0333,4.0333,4.0333,4.0333,0,3.9746,3.9797,3.9827,3.9898,3.9935,3.9983,4.0028,4.0061,4.0081,4.0114,4.0175,4.0221,4.0279,4.0297,4.0314,4.037,4.0367,4.037,4.0363,4.0391,4.0409,4.0416,4.0333,4.0333,4.0333,4.0333,0,0,3.9757,3.9853,3.9863,3.9898,3.9967,4.0007,4.0056,4.0115,4.0144,4.0191,4.0234,4.0303,4.0308,4.0341,4.0364,4.0394,4.0432,4.0394,4.0396,4.0401,4.0498,4.0496,4.0504,4.0441,4.0442,4.0443,4.0494,0,3.9796,3.9888,3.9926,4.0,4.0049,4.0079,4.0122,4.0169,4.0201,4.0246,4.0281,4.033,4.0331,4.0352,4.0383,4.0421,4.0452,4.0417,4.0481,4.0483,4.0468,4.0513,4.0511,4.0557,4.0501,4.0503,4.0503,0,3.9852,3.9906,3.9986,4.0053,4.0075,4.0114,4.0173,4.0216,4.027,4.0292,4.0331,4.0354,4.0407,4.0397,4.0471,4.0446,4.0475,4.0497,4.05,4.0507,4.0495,4.0524,4.0572,4.0579,4.0514,4.0514,4.0513,0,3.9855,3.9946,4.0007,4.0035,4.0115,4.0142,4.0175,4.0229,4.0264,4.0315,4.0338,4.0393,4.0424,4.0466,4.0503,4.0492,4.0574,4.0566,4.0594,4.0593,4.061,4.0608,4.0665,4.0626,4.0625,4.0625,4.0625,0,3.9895,3.9943,4.0011,4.0048,4.0104,4.0147,4.02,4.0236,4.0284,4.0328,4.0356,4.0397,4.0443,4.0489,4.0518,4.0576,4.0589,4.0608,4.0615,4.0607,4.0604,4.0626,4.0624,4.0627,4.0627,4.0626,4.0626,0,3.9907,3.9954,4.0023,4.0095,4.0114,4.0152,4.0212,4.0249,4.0285,4.0341,4.0356,4.0411,4.0468,4.0509,4.058,4.06,4.0664,4.067,4.0646,4.065,4.0676,4.0674,4.075,4.0763,4.0713,4.0713,4.0713,0,3.993,3.9969,4.0046,4.008,4.0115,4.0167,4.0205,4.0249,4.0286,4.0353,4.0383,4.0442,4.0493,4.0582,4.0627,4.0683,4.0691,4.0714,4.07,4.0691,4.0694,4.0692,4.0697,4.0716,4.0717,4.0717,4.0717,0,3.9966,3.9989,4.0042,4.0106,4.015,4.0201,4.0251,4.0277,4.033,4.037,4.0431,4.047,4.0547,4.0606,4.0667,4.07,4.0718,4.0722,4.0731,4.0723,4.0709,4.072,4.0654,4.072,4.0719,4.0719,4.0719,4.0719,3.9986,4.0023,4.0085,4.0145,4.0189,4.0237,4.0277,4.0319,4.0372,4.044,4.0462,4.0525,4.0581,4.0666,4.0701,4.075,4.0749,4.0762,4.0766,4.0769,4.077,4.0701,4.0761,4.0761,4.0761,4.0761,4.0761,0,4.0025,4.0068,4.0123,4.0196,4.0243,4.0259,4.0317,4.0355,4.0412,4.0464,4.0514,4.0585,4.0644,4.0695,4.0755,4.0785,4.0795,4.08,4.0799,4.0807,4.0766,4.0753,4.0791,4.0791,4.0791,4.0791,4.0791,4.0791,4.0051,4.0117,4.0147,4.0235,4.0277,4.0342,4.0374,4.0419,4.0462,4.0541,4.0591,4.0625,4.0678,4.0743,4.0798,4.0811,4.0833,4.0836,4.0851,4.0813,4.0809,4.0806,4.0793,4.084,4.084,4.0889,4.0889,4.0889]}]]